Current Weather Conditions: station 62153

sailwx.info

Wind from 190 at 8 knots

Wave height 0.5 meters (1 feet), 5 second period

Visibility: greater than 10.8 NM

Last reported at 2019-Sep-21 04:00 UTC.
Time now 2019-Sep-21 05:25 UTC

Location: N 57°18' E 002°00'.
View on Google Maps.

See reports from other nearby stations

  
Tides and Currents Weather Stations Pressure Air Temp Water Temp Dewpoint Dewpoint Depression Visibility Wind Speed Wind Dir Waves Ship Positions
date/time (UTC)wind fromknots sea level pressurealtimeterstation pressurevisibilityair tempwater tempwave heightnotes
2019-Sep-21 04:00 190 8 10.8 0.5
2019-Sep-21 03:00 190 7 10.8 0.4
2019-Sep-21 02:00 200 7 5.4 0.5
2019-Sep-21 01:00 190 7 2.2 0.5
2019-Sep-21 00:00 180 9 5.4 0.4
2019-Sep-20 23:00 190 8 2.2 0.5
2019-Sep-20 22:00 170 6 0.0 0.5
2019-Sep-20 21:00 190 7 0.1 0.5
2019-Sep-20 20:00 170 6 0.3 0.5
2019-Sep-20 19:00 160 4 5.4 0.5
2019-Sep-20 18:00 190 5 2.2 0.5
2019-Sep-20 17:00 190 5 2.2 0.5
2019-Sep-20 16:00 190 5 5.4 0.5
2019-Sep-20 15:00 190 6 5.4 0.6
2019-Sep-20 14:00 190 6 5.4 0.6
2019-Sep-20 13:00 190 6 5.4 0.6
2019-Sep-20 12:00 190 5 10.8 0.6
2019-Sep-20 11:00 200 6 10.8 0.6
2019-Sep-20 10:00 190 6 0.5 0.6
2019-Sep-20 09:00 170 6 0.1 0.6
2019-Sep-20 08:00 150 5 0.1 0.6
2019-Sep-20 07:00 180 2 0.0 0.6
2019-Sep-20 06:00 240 1 0.1 0.7
2019-Sep-20 05:00 280 1 0.1 0.7
2019-Sep-20 04:00 250 4 1.1 0.8
2019-Sep-20 03:00 260 5 10.8 0.8
2019-Sep-20 02:00 270 1 10.8 0.8
2019-Sep-20 01:00 270 5 10.8 0.8
2019-Sep-20 00:00 260 4 5.4 0.8
2019-Sep-19 23:00 260 5 10.8 0.8
2019-Sep-19 22:00 240 5 10.8 0.8
2019-Sep-19 21:00 240 8 10.8 0.8
2019-Sep-19 20:00 230 9 5.4 0.9
2019-Sep-19 19:00 240 6 10.8 1.0
2019-Sep-19 18:00 250 5 10.8 1.1
2019-Sep-19 17:00 250 5 10.8 1.1
2019-Sep-19 16:00 250 5 27.0 1.2
2019-Sep-19 15:00 250 6 27.0 1.2
2019-Sep-19 14:00 250 6 27.0 1.3
2019-Sep-19 13:00 240 7 27.0 1.3
2019-Sep-19 12:00 230 8 27.0 1.4
2019-Sep-19 11:00 210 9 27.0 1.3
2019-Sep-19 10:00 200 6 27.0 1.1
2019-Sep-19 09:00 210 6 27.0 1.2
2019-Sep-19 08:00 210 5 27.0 1.2
2019-Sep-19 07:00 230 1 27.0 1.3
2019-Sep-19 06:00 330 1 27.0 1.3
2019-Sep-19 05:00 320 0 27.0 1.5